Time,TemperatureF,DewpointF,PressureIn,WindDirection,WindDirectionDegrees,WindSpeedMPH,WindSpeedGustMPH,Humidity,HourlyPrecipIn,Conditions,Clouds,dailyrainin,SolarRadiationWatts/m^2,SoftwareType,DateUTC
2013-02-25 00:01:00,5.0,3.0,-100.00,SSE,159,0.0,4.0,93,0.00,,,0.08,0.000000,,2013-02-25 07:01:00,
2013-02-25 00:32:00,8.0,6.0,-100.00,SSW,204,2.0,6.0,93,0.00,,,0.08,0.000000,,2013-02-25 07:32:00,
2013-02-25 00:42:00,8.0,6.0,-100.00,SSW,204,2.0,6.0,93,0.00,,,0.08,0.000000,,2013-02-25 07:42:00,
2013-02-25 00:52:00,8.0,6.0,-100.00,SSW,204,2.0,6.0,93,0.00,,,0.08,0.000000,,2013-02-25 07:52:00,
2013-02-25 01:01:00,8.0,6.0,-100.00,SSW,204,2.0,6.0,93,0.00,,,0.08,0.000000,,2013-02-25 08:01:00,
2013-02-25 01:32:00,12.0,9.0,-100.00,South,179,2.0,7.0,88,0.00,,,0.08,0.000000,,2013-02-25 08:32:00,
2013-02-25 01:42:00,12.0,9.0,-100.00,South,179,2.0,7.0,88,0.00,,,0.08,0.000000,,2013-02-25 08:42:00,
2013-02-25 01:52:00,12.0,9.0,-100.00,South,179,2.0,7.0,88,0.00,,,0.08,0.000000,,2013-02-25 08:52:00,
2013-02-25 02:01:00,12.0,9.0,-100.00,South,179,2.0,7.0,88,0.00,,,0.08,0.000000,,2013-02-25 09:01:00,
2013-02-25 02:32:00,12.0,9.0,-100.00,SSE,166,1.0,7.0,88,-99.99,,,0.08,0.000000,,2013-02-25 09:32:00,
2013-02-25 02:42:00,12.0,9.0,-100.00,SSE,166,1.0,7.0,88,-99.99,,,0.08,0.000000,,2013-02-25 09:42:00,
2013-02-25 02:52:00,12.0,9.0,-100.00,SSE,166,1.0,7.0,88,-99.99,,,0.08,0.000000,,2013-02-25 09:52:00,
2013-02-25 03:01:00,12.0,9.0,-100.00,SSE,166,1.0,7.0,88,-99.99,,,0.08,0.000000,,2013-02-25 10:01:00,
2013-02-25 03:21:00,8.0,6.0,-100.00,SSW,197,2.0,7.0,91,-99.99,,,0.08,0.000000,,2013-02-25 10:21:00,
2013-02-25 03:32:00,8.0,6.0,-100.00,SSW,197,2.0,7.0,91,-99.99,,,0.08,0.000000,,2013-02-25 10:32:00,
2013-02-25 03:42:00,8.0,6.0,-100.00,SSW,197,2.0,7.0,91,-99.99,,,0.08,0.000000,,2013-02-25 10:42:00,
2013-02-25 03:52:00,8.0,6.0,-100.00,SSW,197,2.0,7.0,91,-99.99,,,0.08,0.000000,,2013-02-25 10:52:00,
2013-02-25 04:01:00,8.0,6.0,-100.00,SSW,197,2.0,7.0,91,-99.99,,,0.08,0.000000,,2013-02-25 11:01:00,
2013-02-25 04:22:00,13.0,11.0,-100.00,SSW,205,4.0,9.0,91,0.00,,,0.08,0.000000,,2013-02-25 11:22:00,
2013-02-25 04:32:00,13.0,11.0,-100.00,SSW,205,4.0,9.0,91,0.00,,,0.08,0.000000,,2013-02-25 11:32:00,
2013-02-25 04:42:00,13.0,11.0,-100.00,SSW,205,4.0,9.0,91,0.00,,,0.08,0.000000,,2013-02-25 11:42:00,
2013-02-25 04:52:00,13.0,11.0,-100.00,SSW,205,4.0,9.0,91,0.00,,,0.08,0.000000,,2013-02-25 11:52:00,
2013-02-25 05:01:00,13.0,11.0,-100.00,SSW,205,4.0,9.0,91,0.00,,,0.08,0.000000,,2013-02-25 12:01:00,
2013-02-25 05:22:00,15.0,12.0,-100.00,East,88,1.0,7.0,88,-99.99,,,0.08,0.000000,,2013-02-25 12:22:00,
2013-02-25 05:32:00,15.0,12.0,-100.00,East,88,1.0,7.0,88,-99.99,,,0.08,0.000000,,2013-02-25 12:32:00,
2013-02-25 05:42:00,15.0,12.0,-100.00,East,88,1.0,7.0,88,-99.99,,,0.08,0.000000,,2013-02-25 12:42:00,
2013-02-25 05:54:00,15.0,12.0,-100.00,East,88,1.0,7.0,88,-99.99,,,0.08,0.000000,,2013-02-25 12:54:00,
2013-02-25 06:01:00,15.0,12.0,-100.00,East,88,1.0,7.0,88,-99.99,,,0.08,0.000000,,2013-02-25 13:01:00,
2013-02-25 06:23:00,16.0,12.0,-100.00,SW,231,2.0,6.0,85,-99.99,,,0.08,0.000000,,2013-02-25 13:23:00,
2013-02-25 06:32:00,16.0,12.0,-100.00,SW,231,2.0,6.0,85,-99.99,,,0.08,0.000000,,2013-02-25 13:32:00,
2013-02-25 06:42:00,16.0,12.0,-100.00,SW,231,2.0,6.0,85,-99.99,,,0.08,0.000000,,2013-02-25 13:42:00,
2013-02-25 06:52:00,16.0,12.0,-100.00,SW,231,2.0,6.0,85,-99.99,,,0.08,0.000000,,2013-02-25 13:52:00,
2013-02-25 07:02:00,16.0,12.0,-100.00,SW,231,2.0,6.0,85,-99.99,,,0.08,0.000000,,2013-02-25 14:02:00,
2013-02-25 07:32:00,16.0,12.0,-100.00,NW,305,1.0,6.0,84,-99.99,,,0.08,0.000000,,2013-02-25 14:32:00,
2013-02-25 07:42:00,16.0,12.0,-100.00,NW,305,1.0,6.0,84,-99.99,,,0.08,0.000000,,2013-02-25 14:42:00,
2013-02-25 07:52:00,16.0,12.0,-100.00,NW,305,1.0,6.0,84,-99.99,,,0.08,0.000000,,2013-02-25 14:52:00,
2013-02-25 08:02:00,16.0,12.0,-100.00,NW,305,1.0,6.0,84,-99.99,,,0.08,0.000000,,2013-02-25 15:02:00,
2013-02-25 08:22:00,17.0,13.0,-100.00,SW,219,3.0,8.0,84,-99.99,,,-99.99,13.000000,,2013-02-25 15:22:00,
2013-02-25 08:32:00,17.0,13.0,-100.00,SW,219,3.0,8.0,84,-99.99,,,-99.99,13.000000,,2013-02-25 15:32:00,
2013-02-25 08:42:00,17.0,13.0,-100.00,SW,219,3.0,8.0,84,-99.99,,,-99.99,13.000000,,2013-02-25 15:42:00,
2013-02-25 08:52:00,17.0,13.0,-100.00,SW,219,3.0,8.0,84,-99.99,,,-99.99,13.000000,,2013-02-25 15:52:00,
2013-02-25 09:01:00,17.0,13.0,-100.00,SW,219,3.0,8.0,84,-99.99,,,-99.99,13.000000,,2013-02-25 16:01:00,
2013-02-25 09:32:00,21.0,14.0,-100.00,West,280,2.0,8.0,74,-99.99,,,0.08,103.000000,,2013-02-25 16:32:00,
2013-02-25 09:42:00,21.0,14.0,-100.00,West,280,2.0,8.0,74,-99.99,,,0.08,103.000000,,2013-02-25 16:42:00,
2013-02-25 09:52:00,21.0,14.0,-100.00,West,280,2.0,8.0,74,-99.99,,,0.08,103.000000,,2013-02-25 16:52:00,
2013-02-25 10:01:00,21.0,14.0,-100.00,West,280,2.0,8.0,74,-99.99,,,0.08,103.000000,,2013-02-25 17:01:00,
2013-02-25 10:32:00,24.0,14.0,-100.00,SW,218,2.0,8.0,65,-99.99,,,0.08,212.000000,,2013-02-25 17:32:00,
2013-02-25 10:42:00,24.0,14.0,-100.00,SW,218,2.0,8.0,65,-99.99,,,0.08,212.000000,,2013-02-25 17:42:00,
2013-02-25 10:52:00,24.0,14.0,-100.00,SW,218,2.0,8.0,65,-99.99,,,0.08,212.000000,,2013-02-25 17:52:00,
2013-02-25 11:01:00,24.0,14.0,-100.00,SW,218,2.0,8.0,65,-99.99,,,0.08,212.000000,,2013-02-25 18:01:00,
2013-02-25 11:33:00,24.0,15.0,-100.00,SW,235,2.0,6.0,69,-99.99,,,0.08,207.000000,,2013-02-25 18:33:00,
2013-02-25 11:42:00,24.0,15.0,-100.00,SW,235,2.0,6.0,69,-99.99,,,0.08,207.000000,,2013-02-25 18:42:00,
2013-02-25 11:52:00,24.0,15.0,-100.00,SW,235,2.0,6.0,69,-99.99,,,0.08,207.000000,,2013-02-25 18:52:00,
2013-02-25 12:01:00,24.0,15.0,-100.00,SW,235,2.0,6.0,69,-99.99,,,0.08,207.000000,,2013-02-25 19:01:00,
2013-02-25 12:32:00,28.0,15.0,-100.00,North,352,1.0,7.0,58,-99.99,,,0.08,272.000000,,2013-02-25 19:32:00,
2013-02-25 12:42:00,28.0,15.0,-100.00,North,352,1.0,7.0,58,-99.99,,,0.08,272.000000,,2013-02-25 19:42:00,
2013-02-25 12:52:00,28.0,15.0,-100.00,North,352,1.0,7.0,58,-99.99,,,0.08,272.000000,,2013-02-25 19:52:00,
2013-02-25 13:01:00,28.0,15.0,-100.00,North,352,1.0,7.0,58,-99.99,,,0.08,272.000000,,2013-02-25 20:01:00,
2013-02-25 13:22:00,29.0,14.0,-100.00,SW,217,2.0,7.0,54,-99.99,,,0.05,340.000000,,2013-02-25 20:22:00,
2013-02-25 13:32:00,29.0,14.0,-100.00,SW,217,2.0,7.0,54,-99.99,,,0.05,340.000000,,2013-02-25 20:32:00,
2013-02-25 13:42:00,29.0,14.0,-100.00,SW,217,2.0,7.0,54,-99.99,,,0.05,340.000000,,2013-02-25 20:42:00,
2013-02-25 13:52:00,29.0,14.0,-100.00,SW,217,2.0,7.0,54,-99.99,,,0.05,340.000000,,2013-02-25 20:52:00,
2013-02-25 14:01:00,29.0,14.0,-100.00,SW,217,2.0,7.0,54,-99.99,,,0.05,340.000000,,2013-02-25 21:01:00,
2013-02-25 14:32:00,28.0,14.0,-100.00,SW,224,2.0,8.0,56,-99.99,,,0.02,225.000000,,2013-02-25 21:32:00,
2013-02-25 14:42:00,28.0,14.0,-100.00,SW,224,2.0,8.0,56,-99.99,,,0.02,225.000000,,2013-02-25 21:42:00,
2013-02-25 14:52:00,28.0,14.0,-100.00,SW,224,2.0,8.0,56,-99.99,,,0.02,225.000000,,2013-02-25 21:52:00,
2013-02-25 15:01:00,28.0,14.0,-100.00,SW,224,2.0,8.0,56,-99.99,,,0.02,225.000000,,2013-02-25 22:01:00,
2013-02-25 15:32:00,26.0,18.0,-100.00,NNE,26,1.0,8.0,71,-99.99,,,0.00,157.000000,,2013-02-25 22:32:00,
2013-02-25 15:42:00,26.0,18.0,-100.00,NNE,26,1.0,8.0,71,-99.99,,,0.00,157.000000,,2013-02-25 22:42:00,
2013-02-25 15:52:00,26.0,18.0,-100.00,NNE,26,1.0,8.0,71,-99.99,,,0.00,157.000000,,2013-02-25 22:52:00,
2013-02-25 16:01:00,26.0,18.0,-100.00,NNE,26,1.0,8.0,71,-99.99,,,0.00,157.000000,,2013-02-25 23:01:00,
2013-02-25 16:32:00,24.0,19.0,-100.00,West,273,1.0,4.0,80,0.00,,,0.00,127.000000,,2013-02-25 23:32:00,
2013-02-25 16:42:00,24.0,19.0,-100.00,West,273,1.0,4.0,80,0.00,,,0.00,127.000000,,2013-02-25 23:42:00,
2013-02-25 16:52:00,24.0,19.0,-100.00,West,273,1.0,4.0,80,0.00,,,0.00,127.000000,,2013-02-25 23:52:00,
2013-02-25 17:01:00,24.0,19.0,-100.00,West,273,1.0,4.0,80,0.00,,,0.00,127.000000,,2013-02-26 00:01:00,
2013-02-25 17:22:00,21.0,18.0,-100.00,West,270,1.0,3.0,87,0.00,,,0.00,48.000000,,2013-02-26 00:22:00,
2013-02-25 17:32:00,21.0,18.0,-100.00,West,270,1.0,3.0,87,0.00,,,0.00,48.000000,,2013-02-26 00:32:00,
2013-02-25 17:42:00,21.0,18.0,-100.00,West,270,1.0,3.0,87,0.00,,,0.00,48.000000,,2013-02-26 00:42:00,
2013-02-25 17:52:00,21.0,18.0,-100.00,West,270,1.0,3.0,87,0.00,,,0.00,48.000000,,2013-02-26 00:52:00,
2013-02-25 18:01:00,21.0,18.0,-100.00,West,270,1.0,3.0,87,0.00,,,0.00,48.000000,,2013-02-26 01:01:00,
2013-02-25 18:32:00,19.0,17.0,-100.00,WSW,245,1.0,3.0,90,0.00,,,0.00,23.000000,,2013-02-26 01:32:00,
2013-02-25 18:42:00,19.0,17.0,-100.00,WSW,245,1.0,3.0,90,0.00,,,0.00,23.000000,,2013-02-26 01:42:00,
2013-02-25 18:52:00,19.0,17.0,-100.00,WSW,245,1.0,3.0,90,0.00,,,0.00,23.000000,,2013-02-26 01:52:00,
2013-02-25 19:01:00,19.0,17.0,-100.00,WSW,245,1.0,3.0,90,0.00,,,0.00,23.000000,,2013-02-26 02:01:00,
2013-02-25 19:32:00,17.0,16.0,-100.00,WNW,285,0.0,3.0,94,0.00,,,0.00,0.000000,,2013-02-26 02:32:00,
2013-02-25 19:42:00,17.0,16.0,-100.00,WNW,285,0.0,3.0,94,0.00,,,0.00,0.000000,,2013-02-26 02:42:00,
2013-02-25 19:52:00,17.0,16.0,-100.00,WNW,285,0.0,3.0,94,0.00,,,0.00,0.000000,,2013-02-26 02:52:00,
2013-02-25 20:01:00,17.0,16.0,-100.00,WNW,285,0.0,3.0,94,0.00,,,0.00,0.000000,,2013-02-26 03:01:00,
2013-02-25 20:22:00,17.0,16.0,-100.00,West,267,0.0,2.0,95,0.00,,,0.00,0.000000,,2013-02-26 03:22:00,
2013-02-25 20:32:00,17.0,16.0,-100.00,West,267,0.0,2.0,95,0.00,,,0.00,0.000000,,2013-02-26 03:32:00,
2013-02-25 20:42:00,17.0,16.0,-100.00,West,267,0.0,2.0,95,0.00,,,0.00,0.000000,,2013-02-26 03:42:00,
2013-02-25 20:52:00,17.0,16.0,-100.00,West,267,0.0,2.0,95,0.00,,,0.00,0.000000,,2013-02-26 03:52:00,
2013-02-25 21:01:00,17.0,16.0,-100.00,West,267,0.0,2.0,95,0.00,,,0.00,0.000000,,2013-02-26 04:01:00,
2013-02-25 21:32:00,14.0,13.0,-100.00,SE,125,0.0,2.0,95,0.00,,,0.00,0.000000,,2013-02-26 04:32:00,
2013-02-25 21:42:00,14.0,13.0,-100.00,SE,125,0.0,2.0,95,0.00,,,0.00,0.000000,,2013-02-26 04:42:00,
2013-02-25 21:52:00,14.0,13.0,-100.00,SE,125,0.0,2.0,95,0.00,,,0.00,0.000000,,2013-02-26 04:52:00,
2013-02-25 22:01:00,14.0,13.0,-100.00,SE,125,0.0,2.0,95,0.00,,,0.00,0.000000,,2013-02-26 05:01:00,
2013-02-25 22:32:00,13.0,12.0,-100.00,East,97,0.0,3.0,95,0.00,,,0.00,0.000000,,2013-02-26 05:32:00,
2013-02-25 22:43:00,13.0,12.0,-100.00,East,97,0.0,3.0,95,0.00,,,0.00,0.000000,,2013-02-26 05:43:00,
2013-02-25 22:52:00,13.0,12.0,-100.00,East,97,0.0,3.0,95,0.00,,,0.00,0.000000,,2013-02-26 05:52:00,
2013-02-25 23:01:00,13.0,12.0,-100.00,East,97,0.0,3.0,95,0.00,,,0.00,0.000000,,2013-02-26 06:01:00,
2013-02-25 23:32:00,14.0,13.0,-100.00,SW,217,0.0,2.0,95,0.00,,,0.00,0.000000,,2013-02-26 06:32:00,
2013-02-25 23:42:00,14.0,13.0,-100.00,SW,217,0.0,2.0,95,0.00,,,0.00,0.000000,,2013-02-26 06:42:00,
2013-02-25 23:52:00,14.0,13.0,-100.00,SW,217,0.0,2.0,95,0.00,,,0.00,0.000000,,2013-02-26 06:52:00,